Location: Unspecified
(38.9820°N, 94.4650°W)
Time: 22:10:48
(UTC-05:00)

CZ-3 Stage 3 - Visible Passes

Search period start: 31 March 2015 00:00
Search period end: 10 April 2015 00:00
Orbit: 423 x 34806 km, 31.0° (Epoch: 30 March)

Date Brightness Start Highest point End Pass type
(mag) Time Alt. Az. Time Alt. Az. Time Alt. Az.
01 Apr 6.9 15:04:31 10° WSW 23:56:29 30° WSW 00:12:13 18° SSW visible
02 Apr 6.9 11:19:26 10° SSW 19:42:29 75° SSW 20:44:52 10° SE visible
04 Apr 6.9 14:59:51 10° WSW 23:50:49 28° WSW 00:07:58 15° SSW visible
05 Apr 6.9 11:14:08 10° SSW 19:38:45 74° SSW 20:39:55 10° SE visible
07 Apr 7.0 14:55:11 10° WSW 23:45:06 26° WSW 00:03:40 13° SSW visible
08 Apr 7.0 11:08:50 10° SSW 19:34:45 73° SSW 20:34:54 10° SE visible
